DW0416 Weather Reports


Display with metric or nautical units.
time (UTC)temp
F
wind
direction
speed
MPH
gust
MPH
rain 1hr
in
rain 24hr
in
rain mn
in
humidity
%
barometer
mb
20260902160024 57 145 1.0 6.0 0.00 0.02 0.01 75 1018.5
20260902154532 56 106 0.0 2.0 0.00 0.02 0.01 76 1018.6
20260902153037 55 273 1.0 2.0 0.00 0.02 0.01 79 1018.7
20260902151514 53 335 0.0 0.0 0.00 0.02 0.01 81 1018.9
20260902150025 52 162 0.0 0.0 0.00 0.04 0.01 83 1018.9
20260902144529 50 98 0.0 0.0 0.00 0.05 0.01 87 1019.1
20260902143033 49 161 0.0 0.0 0.00 0.05 0.01 90 1019.2
20260902141518 48 155 0.0 0.0 0.00 0.05 0.01 90 1019.3
20260902140019 48 264 0.0 0.0 0.00 0.05 0.01 91 1019.3
20260902134540 48 235 0.0 0.0 0.00 0.06 0.01 91 1019.3
20260902133031 47 150 0.0 0.0 0.00 0.06 0.01 91 1019.3
20260902131540 47 356 0.0 0.0 0.00 0.06 0.01 91 1019.4
20260902130014 47 356 0.0 0.0 0.00 0.06 0.01 90 1019.4
20260902124528 48 237 0.0 0.0 0.00 0.08 0.01 89 1019.3
20260902123034 49 129 0.0 2.0 0.00 0.09 0.01 86 1019.1
20260902121535 50 73 1.0 3.0 0.00 0.09 0.01 87 1019.2
20260902120004 49 74 0.0 2.0 0.00 0.10 0.01 89 1019.3
20260902114511 49 18 0.0 1.0 0.00 0.10 0.01 88 1019.4
20260902113003 49 13 0.0 2.0 0.00 0.10 0.01 88 1019.5
20260902111508 49 30 0.0 2.0 0.00 0.10 0.01 87 1019.5
20260902110009 52 236 0.0 5.0 0.00 0.10 0.01 83 1019.5
20260902104514 51 79 3.0 4.0 0.00 0.10 0.01 85 1019.5
20260902103009 51 123 0.0 4.0 0.00 0.10 0.01 81 1019.9
20260902101522 52 34 2.0 5.0 0.00 0.10 0.01 81 1019.6
20260902100020 52 12 1.0 3.0 0.00 0.10 0.01 83 1019.7
20260902094510 52 352 0.0 4.0 0.00 0.10 0.01 83 1019.8
20260902093020 52 24 3.0 11.0 0.00 0.10 0.01 82 1019.9
20260902091510 53 155 5.0 11.0 0.01 0.11 0.01 81 1019.8
20260902090009 56 140 5.0 9.0 0.01 0.11 0.01 75 1019.7
20260902084513 56 225 4.0 12.0 0.01 0.11 0.01 74 1020.4
20260902083014 55 117 6.0 14.0 0.01 0.11 0.01 76 1020.5
20260902081511 52 130 4.0 12.0 0.00 0.10 0.00 83 1020.9
20260902080015 49 141 4.0 6.0 0.00 0.10 0.00 86 1020.6
20260902074524 49 148 0.0 0.0 0.00 0.10 0.00 87 1019.5
20260902073023 49 46 0.0 2.0 0.00 0.10 0.00 88 1019.5
20260902071513 48 31 0.0 0.0 0.00 0.10 0.00 88 1019.5
20260902070020 48 39 0.0 0.0 0.00 0.10 0.00 89 1019.7
20260902064511 48 344 0.0 1.0 0.00 0.10 0.00 88 1019.8
20260902063030 49 15 0.0 2.0 0.00 0.10 0.00 87 1019.7
20260902061532 49 252 1.0 1.0 0.00 0.10 0.00 86 1019.6
20260902060020 50 114 0.0 1.0 0.00 0.10 0.00 84 1019.8
20260902054518 50 114 0.0 1.0 0.00 0.10 0.10 82 1019.9
20260902053016 51 114 0.0 1.0 0.00 0.10 0.10 82 1019.9
20260902051523 52 142 0.0 1.0 0.00 0.10 0.10 82 1020.0
20260902050017 52 164 0.0 2.0 0.00 0.10 0.10 82 1019.9
20260902044518 52 113 0.0 1.0 0.00 0.10 0.10 81 1020.1
20260902043016 53 127 0.0 2.0 0.00 0.10 0.10 75 1020.1
20260902041533 54 56 0.0 1.0 0.00 0.10 0.10 75 1019.9
20260902040034 55 340 2.0 5.0 0.00 0.10 0.10 72 1019.7
20260902034519 55 23 4.0 5.0 0.01 0.10 0.10 74 1019.9
20260902033019 57 6 3.0 6.0 0.01 0.10 0.10 70 1019.7
20260902031523 59 274 3.0 12.0 0.01 0.10 0.10 66 1019.5
20260902030012 58 46 14.0 17.0 0.01 0.10 0.10 65 1019.3
20260902024530 60 117 4.0 7.0 0.00 0.09 0.09 64 1020.2
20260902023029 63 53 5.0 8.0 0.00 0.09 0.09 46 1019.2
20260902021521 65 256 2.0 18.0 0.00 0.09 0.09 42 1019.7
20260902020003 68 116 4.0 11.0 0.00 0.09 0.09 41 1019.2
20260902014512 69 146 0.0 2.0 0.00 0.09 0.09 51 1018.5
20260902013014 71 182 0.0 1.0 0.00 0.09 0.09 46 1018.3
20260902011527 72 170 0.0 1.0 0.00 0.09 0.09 44 1018.3
20260902010026 70 139 0.0 5.0 0.00 0.09 0.09 46 1018.4
20260902004517 71 148 0.0 3.0 0.00 0.09 0.09 45 1018.3
20260902003011 72 122 1.0 2.0 0.00 0.09 0.09 45 1018.4
20260902001521 74 141 2.0 5.0 0.00 0.09 0.09 43 1018.5
20260902000026 73 270 2.0 6.0 0.00 0.09 0.09 43 1018.7
20260901234529 72 153 0.0 4.0 0.00 0.09 0.09 42 1018.6
20260901233008 71 188 0.0 2.0 0.00 0.09 0.09 46 1018.7
20260901231526 71 202 0.0 1.0 0.00 0.09 0.09 44 1018.8
20260901230027 70 265 2.0 4.0 0.00 0.09 0.09 48 1019.0
20260901224526 71 214 0.0 5.0 0.00 0.09 0.09 46 1018.9
20260901223032 70 238 1.0 3.0 0.00 0.09 0.09 47 1019.2
20260901221515 70 218 2.0 4.0 0.00 0.09 0.09 47 1019.3
20260901220020 69 269 1.0 5.0 0.00 0.09 0.09 46 1019.4
20260901214528 70 338 2.0 5.0 0.00 0.09 0.09 45 1019.7
20260901213028 72 200 2.0 4.0 0.00 0.09 0.09 44 1019.9
20260901211530 69 186 2.0 5.0 0.00 0.09 0.09 48 1020.2
20260901210012 70 92 1.0 3.0 0.00 0.09 0.09 46 1020.5
20260901204532 70 99 1.0 8.0 0.00 0.09 0.09 46 1020.7
20260901203033 69 252 4.0 5.0 0.00 0.09 0.09 47 1020.8
20260901201529 69 182 2.0 10.0 0.00 0.09 0.09 46 1021.1
20260901200039 68 249 3.0 8.0 0.00 0.09 0.09 53 1021.4
20260901194524 68 229 2.0 8.0 0.00 0.09 0.09 56 1021.5
20260901193024 67 133 5.0 12.0 0.00 0.09 0.09 55 1021.6
20260901191547 66 195 2.0 10.0 0.00 0.09 0.09 56 1021.8
20260901190035 66 111 2.0 9.0 0.00 0.09 0.09 60 1021.8
20260901184532 65 186 1.0 15.0 0.00 0.09 0.09 58 1021.7
20260901183029 64 82 3.0 6.0 0.00 0.09 0.09 61 1021.8
20260901181504 64 73 4.0 8.0 0.00 0.09 0.09 63 1022.3
20260901180030 62 167 3.0 8.0 0.00 0.09 0.09 71 1022.2
20260901174523 60 259 2.0 7.0 0.00 0.09 0.09 71 1022.3
20260901173031 60 176 3.0 9.0 0.00 0.09 0.09 74 1022.4
20260901171523 59 169 4.0 8.0 0.00 0.09 0.09 78 1022.6
20260901170013 58 167 4.0 9.0 0.00 0.09 0.09 82 1022.7
20260901164528 57 170 4.0 8.0 0.00 0.09 0.09 85 1022.6
20260901163012 57 180 2.0 5.0 0.00 0.09 0.09 88 1022.4
20260901161546 57 148 0.0 5.0 0.00 0.09 0.09 86 1022.3